PWSweather.com
Personal Weather Stations
Station Observations
KCOBLACK1
Chalet Park, Black Hawk, CO 80422

Chalet ParkBlack Hawk, CO 80422

Lat: 39.8294, Lon: -105.48

Elevation: 9370

Station Type: Vantage Pro2

http://www.oscaranddeb.com/weather

Latest ConditionsUpdated 4:10:00 AM MST Thursday, Nov 23, 2017
Currently Today's Max Today's Min Today's Average
Temperature 40.3°F4.6°C 41.3°F5.2°C 39.9°F4.4°C 40.5°F4.7°C
Dew Point 29.5°F-1.4°C 31.3°F-0.4°C 29.4°F-1.4°C 30.2°F-1.0°C
Winds 12.9 mph SW20.8 kmh SW 15.9 mph W25.6 kmh W - 7.3 mph 11.7 kmh
Wind Gusts 32.0 mph51.5 kmh 34.0 mph54.7 kmh - -
Humidity 65% 69% 64% 67%
Pressure 30.11 in1019.6 mb 30.17 in1021.7 mb 30.11 in1019.6 mb -
Hour Temp Dew Point Humidity Winds Wind Gusts Pressure Precip Precip Rate Daily Precip Total
04:10 AM 40.3°F4.6°C 29.5°F-1.4°C 65% 12.9 mph SW20.8 kmh SW 32.0 mph51.5 kmh 30.11 in1019.6 mb 0.00 in0.0 mm 0.00 in0.0 mm 0.00 in0.0 mm
04:05 AM 40.3°F4.6°C 29.9°F-1.2°C 66% 15.8 mph WSW25.4 kmh WSW 32.0 mph51.5 kmh 30.11 in1019.6 mb 0.00 in0.0 mm 0.00 in0.0 mm 0.00 in0.0 mm
04:00 AM 40.3°F4.6°C 29.9°F-1.2°C 66% 14.2 mph WSW22.9 kmh WSW 28.0 mph45.1 kmh 30.12 in1020.0 mb 0.00 in0.0 mm 0.00 in0.0 mm 0.00 in0.0 mm
03:55 AM 40.3°F4.6°C 29.9°F-1.2°C 66% 14.3 mph WSW23.0 kmh WSW 26.0 mph41.8 kmh 30.13 in1020.3 mb 0.00 in0.0 mm 0.00 in0.0 mm 0.00 in0.0 mm
03:50 AM 40.3°F4.6°C 29.9°F-1.2°C 66% 14.6 mph WSW23.5 kmh WSW 34.0 mph54.7 kmh 30.12 in1020.0 mb 0.00 in0.0 mm 0.00 in0.0 mm 0.00 in0.0 mm
03:45 AM 40.2°F4.6°C 29.8°F-1.2°C 66% 13.8 mph W22.2 kmh W 34.0 mph54.7 kmh 30.12 in1020.0 mb 0.00 in0.0 mm 0.00 in0.0 mm 0.00 in0.0 mm
03:40 AM 40.2°F4.6°C 29.8°F-1.2°C 66% 10.7 mph WSW17.2 kmh WSW 28.0 mph45.1 kmh 30.12 in1020.0 mb 0.00 in0.0 mm 0.00 in0.0 mm 0.00 in0.0 mm
03:35 AM 40.3°F4.6°C 29.9°F-1.2°C 66% 15.9 mph W25.6 kmh W 28.0 mph45.1 kmh 30.13 in1020.3 mb 0.00 in0.0 mm 0.00 in0.0 mm 0.00 in0.0 mm
03:30 AM 40.3°F4.6°C 29.5°F-1.4°C 65% 13.6 mph WSW21.9 kmh WSW 24.0 mph38.6 kmh 30.13 in1020.3 mb 0.00 in0.0 mm 0.00 in0.0 mm 0.00 in0.0 mm
03:25 AM 40.4°F4.7°C 29.6°F-1.3°C 65% 10.0 mph W16.1 kmh W 24.0 mph38.6 kmh 30.14 in1020.7 mb 0.00 in0.0 mm 0.00 in0.0 mm 0.00 in0.0 mm
03:20 AM 40.2°F4.6°C 29.4°F-1.4°C 65% 9.6 mph W15.4 kmh W 24.0 mph38.6 kmh 30.15 in1021.0 mb 0.00 in0.0 mm 0.00 in0.0 mm 0.00 in0.0 mm
03:15 AM 39.9°F4.4°C 29.5°F-1.4°C 66% 7.7 mph SW12.4 kmh SW 20.0 mph32.2 kmh 30.13 in1020.3 mb 0.00 in0.0 mm 0.00 in0.0 mm 0.00 in0.0 mm
03:10 AM 40.0°F4.4°C 29.6°F-1.3°C 66% 4.4 mph WSW7.1 kmh WSW 11.0 mph17.7 kmh 30.15 in1021.0 mb 0.00 in0.0 mm 0.00 in0.0 mm 0.00 in0.0 mm
03:05 AM 40.1°F4.5°C 29.7°F-1.3°C 66% 5.3 mph WSW8.5 kmh WSW 22.0 mph35.4 kmh 30.16 in1021.3 mb 0.00 in0.0 mm 0.00 in0.0 mm 0.00 in0.0 mm
03:00 AM 40.2°F4.6°C 29.4°F-1.4°C 65% 7.7 mph WSW12.4 kmh WSW 22.0 mph35.4 kmh 30.15 in1021.0 mb 0.00 in0.0 mm 0.00 in0.0 mm 0.00 in0.0 mm
02:55 AM 40.2°F4.6°C 29.8°F-1.2°C 66% 6.6 mph WSW10.6 kmh WSW 15.0 mph24.1 kmh 30.15 in1021.0 mb 0.00 in0.0 mm 0.00 in0.0 mm 0.00 in0.0 mm
02:50 AM 40.3°F4.6°C 29.5°F-1.4°C 65% 5.3 mph S8.5 kmh S 12.0 mph19.3 kmh 30.15 in1021.0 mb 0.00 in0.0 mm 0.00 in0.0 mm 0.00 in0.0 mm
02:45 AM 40.3°F4.6°C 29.5°F-1.4°C 65% 4.6 mph SE7.4 kmh SE 15.0 mph24.1 kmh 30.16 in1021.3 mb 0.00 in0.0 mm 0.00 in0.0 mm 0.00 in0.0 mm
02:40 AM 40.3°F4.6°C 29.5°F-1.4°C 65% 6.7 mph S10.8 kmh S 15.0 mph24.1 kmh 30.16 in1021.3 mb 0.00 in0.0 mm 0.00 in0.0 mm 0.00 in0.0 mm
02:35 AM 40.2°F4.6°C 29.8°F-1.2°C 66% 7.6 mph SE12.2 kmh SE 14.0 mph22.5 kmh 30.15 in1021.0 mb 0.00 in0.0 mm 0.00 in0.0 mm 0.00 in0.0 mm
02:30 AM 40.2°F4.6°C 29.8°F-1.2°C 66% 3.4 mph S5.5 kmh S 11.0 mph17.7 kmh 30.16 in1021.3 mb 0.00 in0.0 mm 0.00 in0.0 mm 0.00 in0.0 mm
02:25 AM 40.4°F4.7°C 30.0°F-1.1°C 66% 5.0 mph SW8.0 kmh SW 15.0 mph24.1 kmh 30.15 in1021.0 mb 0.00 in0.0 mm 0.00 in0.0 mm 0.00 in0.0 mm
02:20 AM 40.3°F4.6°C 29.9°F-1.2°C 66% 5.1 mph SW8.2 kmh SW 17.0 mph27.4 kmh 30.15 in1021.0 mb 0.00 in0.0 mm 0.00 in0.0 mm 0.00 in0.0 mm
02:15 AM 40.2°F4.6°C 30.1°F-1.1°C 67% 6.0 mph SW9.7 kmh SW 17.0 mph27.4 kmh 30.16 in1021.3 mb 0.00 in0.0 mm 0.00 in0.0 mm 0.00 in0.0 mm
02:10 AM 40.2°F4.6°C 30.1°F-1.1°C 67% 5.5 mph SW8.9 kmh SW 14.0 mph22.5 kmh 30.16 in1021.3 mb 0.00 in0.0 mm 0.00 in0.0 mm 0.00 in0.0 mm
02:05 AM 40.2°F4.6°C 30.1°F-1.1°C 67% 5.5 mph WSW8.9 kmh WSW 14.0 mph22.5 kmh 30.16 in1021.3 mb 0.00 in0.0 mm 0.00 in0.0 mm 0.00 in0.0 mm
02:00 AM 40.4°F4.7°C 30.0°F-1.1°C 66% 5.1 mph SW8.2 kmh SW 12.0 mph19.3 kmh 30.16 in1021.3 mb 0.00 in0.0 mm 0.00 in0.0 mm 0.00 in0.0 mm
01:55 AM 40.8°F4.9°C 29.6°F-1.3°C 64% 5.6 mph SSW9.0 kmh SSW 12.0 mph19.3 kmh 30.16 in1021.3 mb 0.00 in0.0 mm 0.00 in0.0 mm 0.00 in0.0 mm
01:50 AM 40.9°F4.9°C 29.7°F-1.3°C 64% 3.5 mph SW5.6 kmh SW 7.0 mph11.3 kmh 30.16 in1021.3 mb 0.00 in0.0 mm 0.00 in0.0 mm 0.00 in0.0 mm
01:45 AM 40.7°F4.8°C 29.9°F-1.2°C 65% 1.9 mph SW3.1 kmh SW 9.0 mph14.5 kmh 30.17 in1021.7 mb 0.00 in0.0 mm 0.00 in0.0 mm 0.00 in0.0 mm
01:40 AM 40.5°F4.7°C 30.0°F-1.1°C 66% 4.7 mph S7.6 kmh S 10.0 mph16.1 kmh 30.16 in1021.3 mb 0.00 in0.0 mm 0.00 in0.0 mm 0.00 in0.0 mm
01:35 AM 40.3°F4.6°C 30.2°F-1.0°C 67% 5.0 mph S8.0 kmh S 10.0 mph16.1 kmh 30.16 in1021.3 mb 0.00 in0.0 mm 0.00 in0.0 mm 0.00 in0.0 mm
01:30 AM 40.3°F4.6°C 30.6°F-0.8°C 68% 5.0 mph SSE8.0 kmh SSE 10.0 mph16.1 kmh 30.16 in1021.3 mb 0.00 in0.0 mm 0.00 in0.0 mm 0.00 in0.0 mm
01:25 AM 40.3°F4.6°C 30.6°F-0.8°C 68% 2.9 mph S4.7 kmh S 7.0 mph11.3 kmh 30.15 in1021.0 mb 0.00 in0.0 mm 0.00 in0.0 mm 0.00 in0.0 mm
01:20 AM 40.4°F4.7°C 30.7°F-0.7°C 68% 2.8 mph WNW4.5 kmh WNW 8.0 mph12.9 kmh 30.15 in1021.0 mb 0.00 in0.0 mm 0.00 in0.0 mm 0.00 in0.0 mm
01:15 AM 40.6°F4.8°C 30.9°F-0.6°C 68% 2.3 mph SW3.7 kmh SW 10.0 mph16.1 kmh 30.15 in1021.0 mb 0.00 in0.0 mm 0.00 in0.0 mm 0.00 in0.0 mm
01:10 AM 40.6°F4.8°C 30.9°F-0.6°C 68% 5.4 mph S8.7 kmh S 15.0 mph24.1 kmh 30.15 in1021.0 mb 0.00 in0.0 mm 0.00 in0.0 mm 0.00 in0.0 mm
01:05 AM 40.6°F4.8°C 31.2°F-0.4°C 69% 6.5 mph S10.5 kmh S 15.0 mph24.1 kmh 30.15 in1021.0 mb 0.00 in0.0 mm 0.00 in0.0 mm 0.00 in0.0 mm
01:00 AM 40.4°F4.7°C 31.0°F-0.6°C 69% 4.6 mph WSW7.4 kmh WSW 13.0 mph20.9 kmh 30.16 in1021.3 mb 0.00 in0.0 mm 0.00 in0.0 mm 0.00 in0.0 mm
12:55 AM 40.4°F4.7°C 31.0°F-0.6°C 69% 6.4 mph SW10.3 kmh SW 13.0 mph20.9 kmh 30.15 in1021.0 mb 0.00 in0.0 mm 0.00 in0.0 mm 0.00 in0.0 mm
12:50 AM 40.7°F4.8°C 31.0°F-0.6°C 68% 3.7 mph SSW6.0 kmh SSW 15.0 mph24.1 kmh 30.16 in1021.3 mb 0.00 in0.0 mm 0.00 in0.0 mm 0.00 in0.0 mm
12:45 AM 40.7°F4.8°C 31.0°F-0.6°C 68% 5.9 mph S9.5 kmh S 15.0 mph24.1 kmh 30.16 in1021.3 mb 0.00 in0.0 mm 0.00 in0.0 mm 0.00 in0.0 mm
12:40 AM 40.9°F4.9°C 31.2°F-0.4°C 68% 3.9 mph SW6.3 kmh SW 22.0 mph35.4 kmh 30.16 in1021.3 mb 0.00 in0.0 mm 0.00 in0.0 mm 0.00 in0.0 mm
12:35 AM 41.0°F5.0°C 31.3°F-0.4°C 68% 9.6 mph SSW15.4 kmh SSW 22.0 mph35.4 kmh 30.16 in1021.3 mb 0.00 in0.0 mm 0.00 in0.0 mm 0.00 in0.0 mm
12:30 AM 41.0°F5.0°C 30.9°F-0.6°C 67% 5.9 mph S9.5 kmh S 17.0 mph27.4 kmh 30.16 in1021.3 mb 0.00 in0.0 mm 0.00 in0.0 mm 0.00 in0.0 mm
12:25 AM 41.2°F5.1°C 31.1°F-0.5°C 67% 6.8 mph S10.9 kmh S 17.0 mph27.4 kmh 30.16 in1021.3 mb 0.00 in0.0 mm 0.00 in0.0 mm 0.00 in0.0 mm
12:20 AM 41.3°F5.2°C 31.2°F-0.4°C 67% 4.6 mph S7.4 kmh S 18.0 mph29.0 kmh 30.16 in1021.3 mb 0.00 in0.0 mm 0.00 in0.0 mm 0.00 in0.0 mm
12:15 AM 41.2°F5.1°C 31.1°F-0.5°C 67% 8.7 mph S14.0 kmh S 26.0 mph41.8 kmh 30.17 in1021.7 mb 0.00 in0.0 mm 0.00 in0.0 mm 0.00 in0.0 mm
12:10 AM 41.0°F5.0°C 30.9°F-0.6°C 67% 12.4 mph S20.0 kmh S 26.0 mph41.8 kmh 30.17 in1021.7 mb 0.00 in0.0 mm 0.00 in0.0 mm 0.00 in0.0 mm
12:05 AM 40.9°F4.9°C 30.8°F-0.7°C 67% 9.0 mph SSW14.5 kmh SSW 17.0 mph27.4 kmh 30.17 in1021.7 mb 0.00 in0.0 mm 0.00 in0.0 mm 0.00 in0.0 mm
12:00 AM 40.9°F4.9°C 31.2°F-0.4°C 68% 9.6 mph SSW15.4 kmh SSW 16.0 mph25.7 kmh 30.17 in1021.7 mb 0.00 in0.0 mm 0.00 in0.0 mm 0.01 in0.3 mm